Terminal Aerodrome Forecast
Issued by NWS

Home | Current Version | Previous Version | Text Only | Print | Product List | Glossary On
Versions: 1 2 3 4 5 6 7 8 9 10 11 12 13 14
000
FTUS41 KBTV 191300 AAA
TAFRUT
TAF AMD
KRUT 191321Z 1913/2012 33007G14KT P6SM SCT040
     FM191800 32015G25KT P6SM SCT040
     FM200000 VRB04KT P6SM SKC
      AMD LTD TO CLD VIS AND WIND=

USA.gov is the U.S. government's official web portal to all federal, state and local government web resources and services.